Location: Newark
(40.0667°N, 18.0500°E)
Time: 15:17:30
(UTC+00:00)

N. Korean satellite - Pass Details

Date: 26 January 2020
Orbit: 456 x 506 km, 97.2° (Epoch: 17 February)

Event Time Altitude Azimuth Distance (km) Brightness Sun altitude
Rises 05:18:06 0° 358° (N) 2,540 10.0 -8.7°
Reaches altitude 10° 05:20:23 10° 345° (NNW) 1,666 9.0 -8.3°
Maximum altitude 05:23:21 25° 289° (WNW) 1,028 7.6 -7.7°
Drops below altitude 10° 05:26:20 10° 233° (SW) 1,679 9.0 -7.2°
Sets 05:28:39 0° 220° (SW) 2,564 10.0 -6.8°
